Location: Newark
(29.9790°N, 31.1340°E)
Time: 00:41:57
(UTC+00:00)

Tiros 1 - Pass Details

Date: 23 January 2020
Orbit: 631 x 664 km, 48.4° (Epoch: 27 February)

Event Time Altitude Azimuth Distance (km) Brightness Sun altitude
Rises 16:59:37 0° 319° (NW) 2,981 11.0 -20.6°
Reaches altitude 10° 17:02:11 10° 330° (NNW) 2,072 10.0 -21.1°
Enters shadow 17:05:37 30° 13° (NNE) 1,188 8.3 -21.9°
